{"data":{"norad_id":47291,"intl_designator":"2020-100AK","name":"ONEWEB-0145","alt_names":[],"object_type":"PAYLOAD","status":"ACTIVE","operator":null,"country":"UK","launch_date":"2020-12-18","launch_site_code":"VOSTO","launch_vehicle":null,"mission":null,"orbit_class":"UNKNOWN","rcs_meters":null,"size_class":null,"mass_kg":null,"dimensions":null,"purposes":["comms"],"wikipedia_slug":null,"has_3d_model":false,"image_url":null,"decayed_at":null,"tle_current":{"epoch":"2026-09-20T04:13:52.345056Z","epoch_age_seconds":46269,"freshness":"FRESH","line1":"1 47291U 20100AK  26263.17630029  .00000449  00000+0  12123-2 0  9990","line2":"2 47291  87.8976 331.8083 0001663  97.8683 262.2634 13.12442105277221","mean_motion":13.12442105,"eccentricity":0.0001663,"inclination_deg":87.8976,"raan_deg":331.8083,"arg_perigee_deg":97.8683,"mean_anomaly_deg":262.2634,"bstar":0.0012123,"rev_number":27722,"period_min":109.71912547716,"perigee_km":1212.464215543,"apogee_km":1214.9892694238,"semimajor_km":7591.8637424834,"source":"CELESTRAK","updated_at":"2026-09-20T09:00:44.582947Z"}}}